Погода в Банбери

Австралия     33°20′28″S   115°38′37″E
темп.,
°C
ветер,
м/с
пор.,
м/с
влажн.,
%
обл.,
%
осадки,
мм/ч
давл.,
гПа
погр.,
м
6 мая, чт
чт623:00+15всв239372 0.1 100853
02:00+15св239379 0.1 100989
05:00+14св22938 0.2 1009112
08:00+15ссв249110 0.6 1011115
11:00+20ссз35668 0.6 1012919
14:00+21сз45605 1.1 10101110
17:00+18зсз23810 0.5 1011178
20:00+15ю35905 0.6 1013152
7 мая, пт
пт723:00+14ююв24930 0.0 101597
02:00+13ююв34930 0.0 101590
05:00+12юв23910 0.0 101666
08:00+14юв2482100 0.0 1019162
11:00+19ююз44554 0.0 10191316
14:00+20ююз55486 0.0 10181714
17:00+18ююз3553100 0.0 1020379
20:00+17ю346022 0.0 1022280
8 мая, сб
сб823:00+14вюв227344 0.0 102262
02:00+12в118356 0.0 102230
05:00+14всв1273100 0.0 102357
08:00+15ссв1170100 0.0 102474
11:00+18сз226228 0.0 1023623
14:00+19з446020 0.2 10221147
17:00+17зюз34662 0.0 1022256
20:00+14ю22720 0.0 1023189
9 мая, вс
вс923:00+13юв127514 0.0 1023150
02:00+13всв1171100 0.0 1023203
05:00+15с0268100 0.0 1022226
08:00+16зсз1372100 0.1 1023205
11:00+19зюз466797 0.1 10231033
14:00+20юз565889 0.3 10221463
17:00+18юз356980 0.1 1022404
20:00+16ююв35775 0.1 1024204
10 мая, пн
пн1023:00+13вюв228616 0.0 102434
02:00+13вюв228738 0.0 102437
05:00+15всв1281100 0.0 102449
08:00+15в12840 0.0 102587
11:00+21в12601 0.0 1024880
14:00+21з436492 0.0 1022430
17:00+18юз2377100 0.0 1022162
20:00+18ююв2381100 0.0 1023126